Lander, WY

9:44 AM MDT on April 30, 2017 (GMT -0600)
Hunt

Weather History for KLND - August, 2013

Change the Weather History Date:

Monday, August 26, 2013

  Actual Average Record
Temperature  
Mean Temperature 72 °F 67 °F  
Max Temperature 84 °F 83 °F 95 °F (2010)
Min Temperature 60 °F 52 °F 30 °F (1910)
Degree Days  
Heating Degree Days 0 1  
Month to date heating degree days 0 14  
Since 1 June heating degree days 54 156  
Since 1 July heating degree days 0 30  
Cooling Degree Days 7 4  
Month to date cooling degree days 218 151  
Year to date cooling degree days 635 428  
Since 1 June cooling degree days 626 423  
Growing Degree Days 22 (Base 50)    
Moisture  
Dew Point 44 °F    
Average Humidity 38    
Maximum Humidity 52    
Minimum Humidity 23    
Precipitation  
Precipitation 0.00 in 0.01 in 0.88 in (1933)
Month to date precipitation 0.01 0.52  
Year to date precipitation 7.86 8.79  
Snow  
Snow 0.00 in 0.00 in - ()
Month to date snowfall 0.0 0.0  
Since 1 June snowfall 0.0 0.1  
Since 1 July snowfall 0.0 0.0  
Snow Depth 0.00 in    
Sea Level Pressure  
Sea Level Pressure 29.92 in    
Wind  
Wind Speed 5 mph (WNW)    
Max Wind Speed 20 mph    
Max Gust Speed 25 mph    
Visibility 10 miles    
Events      
T = Trace of Precipitation, MM = Missing Value Source: NWS Daily Summary

Daily Weather History Graph

Daily Weather History Graph

Search for Another Location

Airport or City:

Trip Planner

Search our weather history database for the weather conditions in past years. The results will help you decide how hot, cold, wet, or windy it might be!

Date:

Astronomy

Aug. 26, 2013 Rise Set
Actual Time 6:33 AM MDT 7:58 PM MDT
Civil Twilight 6:03 AM MDT 8:28 PM MDT
Nautical Twilight 5:28 AM MDT 9:03 PM MDT
Astronomical Twilight 4:50 AM MDT 9:41 PM MDT
Moon 11:01 PM MDT (8/26) 12:47 PM MDT (8/26)
Length of Visible Light 14h 24m
Length of Day
13h 25m
Waning Gibbous, 66% of the Moon is Illuminated
Aug 26
Waning Gibbous
Aug 28
Last Quarter
Sep 5
New
Sep 12
First Quarter
Sep 19
Full

Hourly Weather History & Observations

Time (MDT) Temp. Dew Point Humidity Pressure Visibility Wind Dir Wind Speed Gust Speed Precip Events Conditions
12:53 AM 72.0 °F 41.0 °F 33% 29.87 in 10.0 mi Calm Calm - N/A   Clear
1:53 AM 71.1 °F 39.9 °F 32% 29.86 in 10.0 mi East 4.6 mph - N/A   Clear
2:53 AM 71.1 °F 39.9 °F 32% 29.86 in 10.0 mi Calm Calm - N/A   Clear
3:53 AM 66.0 °F 43.0 °F 43% 29.87 in 10.0 mi NE 8.1 mph - N/A   Clear
4:53 AM 66.0 °F 42.1 °F 42% 29.90 in 10.0 mi WSW 4.6 mph - N/A   Clear
5:53 AM 66.0 °F 41.0 °F 40% 29.92 in 10.0 mi WNW 9.2 mph - N/A   Clear
6:53 AM 66.0 °F 39.9 °F 38% 29.94 in 10.0 mi West 6.9 mph - N/A   Clear
7:53 AM 63.0 °F 43.0 °F 48% 29.96 in 10.0 mi Calm Calm - N/A   Clear
8:53 AM 68.0 °F 44.1 °F 42% 29.97 in 10.0 mi SE 3.5 mph - N/A   Clear
9:53 AM 73.9 °F 43.0 °F 33% 29.97 in 10.0 mi Calm Calm - N/A   Clear
10:53 AM 75.9 °F 45.0 °F 33% 29.98 in 10.0 mi NW 4.6 mph - N/A   Clear
11:53 AM 80.1 °F 44.1 °F 28% 29.95 in 10.0 mi NNW 4.6 mph - N/A   Partly Cloudy
12:53 PM 82.0 °F 44.1 °F 26% 29.93 in 10.0 mi Variable 6.9 mph - N/A   Clear
1:53 PM 82.9 °F 41.0 °F 23% 29.91 in 10.0 mi Calm Calm - N/A   Overcast
2:53 PM 80.1 °F 44.1 °F 28% 29.91 in 10.0 mi WNW 5.8 mph - N/A   Overcast
3:53 PM 80.1 °F 44.1 °F 28% 29.91 in 10.0 mi Calm Calm - N/A   Overcast
4:53 PM 81.0 °F 44.1 °F 27% 29.90 in 10.0 mi South 3.5 mph - N/A   Partly Cloudy
5:53 PM 82.9 °F 43.0 °F 24% 29.89 in 10.0 mi Calm Calm - N/A   Partly Cloudy
6:53 PM 80.1 °F 46.0 °F 30% 29.90 in 10.0 mi Calm Calm - N/A   Overcast
7:53 PM 77.0 °F 44.1 °F 31% 29.92 in 10.0 mi SW 8.1 mph - N/A   Mostly Cloudy
8:53 PM 69.1 °F 50.0 °F 51% 29.95 in 10.0 mi NNW 10.4 mph - N/A   Overcast
9:53 PM 68.0 °F 48.0 °F 49% 29.96 in 10.0 mi NNW 8.1 mph - N/A   Mostly Cloudy
10:53 PM 66.0 °F 48.9 °F 54% 29.96 in 10.0 mi East 6.9 mph - N/A   Overcast
11:53 PM 66.0 °F 48.9 °F 54% 29.94 in 10.0 mi SE 5.8 mph - N/A   Overcast